|
|
Asteroid 2011 EU20
(Preview)
Orbital elements: 2011 EU20 Earth MOID = 0.0000 AU Epoch 2011 Feb. 8.0 TT = JDT 2455600.5 MPC M 339.22804 (2000.0) P Q n 0.36846383 Peri. 210.87073 -0.92564401 +0.37838662 a 1.9269605 Node 351.36186 -0.34354718 -0.84325341 e 0.5091605 Incl. 0.99059 -0.15861435 -0.38176858 P 2.67 H 27.3 G 0.15 U 7 M...
|
Blobrana
|
1
|
|
|
|
|
Asteroid 2008 EM68
(Preview)
The 10 metre wide asteroid 2008 EM68 will pass the Earth-Moon system on the 11th March, 2011. See more The Lunar Distance (LD), the distance between Earth and the Moon, equals 384,401 km, (or 0.00256 AU).
|
Blobrana
|
0
|
|
|
|
|
Asteroid 2011 EK40
(Preview)
Orbital elements: 2011 EK40 Earth MOID = 0.0426 AU Epoch 2011 Feb. 28.0 TT = JDT 2455620.5 MPC M 3.65828 (2000.0) P Q n 0.73705908 Peri. 354.07576 -0.89647108 -0.44265748 a 1.2137647 Node 159.61471 +0.40884195 -0.84359732 e 0.1493689 Incl. 3.26653 +0.17084454 -0.30397025 P 1.34 H 27.4 G 0.15 From...
|
Blobrana
|
0
|
|
|
|
|
Asteroid 2011 EL40
(Preview)
Orbital elements: 2011 EL40 Earth MOID = 0.0066 AU Epoch 2011 Feb. 8.0 TT = JDT 2455600.5 MPC M 3.09722 (2000.0) P Q n 0.22929352 Peri. 267.49607 -0.10518137 -0.99444659 a 2.6436758 Node 188.54404 +0.92171730 -0.09613376 e 0.7314991 Incl. 1.38320 +0.37332841 -0.04282852 P 4.30 H 26.3 G 0.15 U 8 MPE...
|
Blobrana
|
0
|
|
|
|
|
Asteroid 2011 EM40
(Preview)
Orbital elements: 2011 EM40 Earth MOID = 0.0012 AU Epoch 2011 Feb. 28.0 TT = JDT 2455620.5 MPC M 42.90366 (2000.0) P Q n 0.80777969 Peri. 263.01707 +0.22434417 -0.97450944 a 1.1418457 Node 174.01832 +0.89793756 +0.20630707 e 0.3622572 Incl. 0.56409 +0.37865265 +0.08814051 P 1.22 H 27.9 G 0.15 Fro...
|
Blobrana
|
0
|
|
|
|
|
Asteroid 2011 EV29
(Preview)
Orbital elements: 2011 EV29 Earth MOID = 0.0082 AU Epoch 2011 Feb. 8.0 TT = JDT 2455600.5 MPC M 18.66330 (2000.0) P Q n 0.65277412 Peri. 115.97671 -0.01874974 -0.99863286 a 1.3161158 Node 334.95230 +0.87116964 +0.00763035 e 0.3781141 Incl. 6.61810 +0.49062399 -0.05171260 P 1.51 H 24.1 G 0.15 U 8 MP...
|
Blobrana
|
0
|
|
|
|
|
Asteroid 2011 EW29
(Preview)
Orbital elements: 2011 EW29 Earth MOID = 0.1146 AU Epoch 2011 Feb. 8.0 TT = JDT 2455600.5 MPC M 336.05321 (2000.0) P Q n 0.47846296 Peri. 179.85757 -0.98134532 +0.18185488 a 1.6189639 Node 11.21913 -0.17670450 -0.72537849 e 0.3120119 Incl. 18.69755 -0.07574223 -0.66389370 P 2.06 H 21.0 G 0.15 U 8 M...
|
Blobrana
|
0
|
|
|
|
|
Asteroid 2011 EX29
(Preview)
Orbital elements: 2011 EX29 Earth MOID = 0.1467 AU Epoch 2011 Feb. 28.0 TT = JDT 2455620.5 MPC M 23.70956 (2000.0) P Q n 0.49851686 Peri. 30.04086 +0.51523056 -0.85059742 a 1.5752500 Node 29.32650 +0.73745854 +0.37758394 e 0.7022810 Incl. 12.37712 +0.43668336 +0.36594315 P 1.98 H 21.5 G 0.15 From...
|
Blobrana
|
0
|
|
|
|
|
Asteroid 2011 ET29
(Preview)
Orbital elements: 2011 ET29 Earth MOID = 0.2551 AU Epoch 2011 Feb. 28.0 TT = JDT 2455620.5 MPC M 329.39079 (2000.0) P Q n 0.25885804 Peri. 224.14756 -0.59595170 +0.80235419 a 2.4383438 Node 9.43548 -0.67038161 -0.47468476 e 0.4975541 Incl. 11.50601 -0.44207473 -0.36180401 P 3.81 H 18.8 G 0.15 Fro...
|
Blobrana
|
0
|
|
|
|
|
Asteroid 2011 ET20
(Preview)
Orbital elements: 2011 ET20 Earth MOID = 0.0713 AU Epoch 2011 Feb. 8.0 TT = JDT 2455600.5 MPC M 6.81728 (2000.0) P Q n 0.45016292 Peri. 313.35789 -0.48573539 -0.87334175 a 1.6861242 Node 165.57443 +0.83840781 -0.47731596 e 0.4033858 Incl. 8.43476 +0.24725184 -0.09717850 P 2.19 H 25.0 G 0.15 U 8 MPE...
|
Blobrana
|
0
|
|
|
|
|
Asteroid 2005 EA
(Preview)
The 170 - 390 metre wide asteroid 2005 EA will make a close pass (51.8 lunar distances, 0.1330 AU), travelling at 25.88 km/second, to the Earth-Moon system on the 9th March, 2011 @ 22:28 UT ±00:01. See more The Lunar Distance (LD), the distance between Earth and the Moon, equals 384,401 km, (or 0.00256...
|
Blobrana
|
0
|
|
|
|
|
Asteroid 2008 DY22
(Preview)
The 38 - 86 metre wide asteroid 2008 DY22 will make a close pass (50.8 lunar distances, 0.1306 AU), travelling at 11.28 km/second, to the Earth-Moon system on the 9th March, 2011 @ 09:51 UT ±02:20. See more The Lunar Distance (LD), the distance between Earth and the Moon, equals 384,401 km, (or 0.00256...
|
Blobrana
|
0
|
|
|
|
|
Asteroid 2008 CA22
(Preview)
The 200 - 440 metre wide asteroid 2008 CA22 will make a close pass (77.1 lunar distances, 0.1982 AU), travelling at 27.69 km/second, to the Earth-Moon system on the 9th March, 2011 @ 09:29 UT ±1 day 01:33. See more The Lunar Distance (LD), the distance between Earth and the Moon, equals 384,401 km, (or 0...
|
Blobrana
|
0
|
|
|
|
|
Asteroid 2011 EL17
(Preview)
Orbital elements: 2011 EL17 Earth MOID = 0.0105 AU Epoch 2011 Feb. 8.0 TT = JDT 2455600.5 MPC M 7.55266 (2000.0) P Q n 0.52739877 Peri. 302.33903 -0.39314561 -0.91941507 a 1.5172016 Node 170.79282 +0.86431209 -0.37346905 e 0.4099779 Incl. 3.80030 +0.31368956 -0.12327533 P 1.87 H 26.7 G 0.15 U 6 MPE...
|
Blobrana
|
0
|
|
|
|
|
Asteroid 2011 EF17
(Preview)
Orbital elements: 2011 EF17 PHA, Earth MOID = 0.0091 AU Epoch 2011 Feb. 8.0 TT = JDT 2455600.5 MPC M 315.84227 (2000.0) P Q n 0.26923505 Peri. 281.56909 +0.28555470 +0.95834032 a 2.3752809 Node 5.03706 -0.84787476 +0.25579257 e 0.7444454 Incl. 4.24987 -0.44672911 +0.12709832 P 3.66 H 18.9 G 0.15 U...
|
Blobrana
|
0
|
|
|